Regional Weather Roundup
Issued by NWS Jackson, KY

Home | Current Version | Previous Version | Text Only | Print | Product List | Glossary Off
Versions: 1 2 3 4 5 6 7 8 9 10 11 12 13 14 15 16 17 18 19 20 21 22 23 24 25 26 27 28 29 30 31 32 33 34 35 36 37 38 39 40 41 42 43 44 45 46 47 48 49 50

000
ASUS43 KJKL 281010
RWRJKL

EAST KENTUCKY HOURLY WEATHER ROUNDUP
NATIONAL WEATHER SERVICE JACKSON KY
600 AM EDT SAT MAR 28 2015

NOTE: "FAIR" INDICATES FEW OR NO CLOUDS BELOW 12,000 FEET WITH
NO SIGNIFICANT WEATHER AND/OR OBSTRUCTIONS TO VISIBILITY.

* THESE REPORTS ARE NOT UNDER NWS QUALITY CONTROL AND MAY NOT
  REPORT WEATHER SUCH AS PRECIPITATION AND FOG.

KYZ079-080-083-085-087-088-110-112-115-119-120-281100
...EASTERN KENTUCKY...

CITY           SKY/WX    TMP DP  RH WIND       PRES   REMARKS
JACKSON        CLOUDY    25  16  68 NW5       30.07R WCI  19
LONDON         CLOUDY    28  10  46 NW9       30.09R WCI  19
SOMERSET*      CLOUDY    27  16  63 N5        30.13S WCI  21
MONTICELLO*    MOCLDY    28  16  61 N10       30.15R WCI  19
MIDDLESBORO*   CLOUDY    29  16  57 NW8       30.08R WCI  21
HAZARD APT*    CLOUDY    27  18  69 NW7       30.08R WCI  19
BLACK MTN*       N/A     14  14 100 VRB7        N/A  WCI   4
PIKEVILLE APT* CLOUDY    25  16  68 N9        30.05R WCI  15
BIG SANDY*     CLOUDY    26  17  66 N9        30.07R WCI  17
MOREHEAD APT*  CLOUDY    25  18  74 N8        30.13R WCI  16
$$

KYZ035-036-041-042-044-050-067-078-099-281100
...CENTRAL KENTUCKY...

CITY           SKY/WX    TMP DP  RH WIND       PRES   REMARKS
MT STERLING*   MOCLDY    25  18  74 N5        30.13R WCI  19
FLEMING/MASON* CLOUDY    25  18  74 N6        30.14R WCI  18
DANVILLE*      PTCLDY    23  18  80 NW5       30.14R WCI  17
RICHMOND*      CLEAR     23  16  74 NW6       30.12R WCI  16
LEXINGTON      MOCLDY    20  13  74 NW7       30.13R WCI  11
FRANKFORT      CLEAR     22  11  62 N6        30.14R WCI  14
$$

KYZ091>093-OHZ055-061-077-WVZ005-015-034-035-042-281100
...SOUTHERN OHIO/WEST VIRGINIA...

CITY           SKY/WX    TMP DP  RH WIND       PRES   REMARKS
COVINGTON      CLEAR     20  13  74 NW7       30.15R WCI  11
COLUMBUS       CLOUDY    19  10  68 N10       30.14R WCI   7
DAYTON         CLEAR     19  13  77 N5        30.15R WCI  12
WILMINGTON     CLEAR     19  14  81 N7        30.13R WCI  10
HUNTINGTON     PTCLDY    24   7  48 NW6       30.10R WCI  17
CHARLESTON     PTCLDY    24  10  55 NW9G17    30.06R WCI  14
PINEVILLE*     CLOUDY    26  13  58 MISG      30.04R
BECKLEY        MOCLDY    19   3  49 NW10G23   29.93R WCI   7
BLUEFIELD      CLOUDY    20  10  65 NW12      29.90S WCI   8
$$

VAZ002-007-008-TNZ017-027-036-066-071-281100
...SOUTHWEST VIRGINIA/EAST TENNESSEE...

CITY           SKY/WX    TMP DP  RH WIND       PRES   REMARKS
WISE*          CLOUDY    23  12  63 NW7       29.96R WCI  15
JONESVILLE*    CLOUDY    28  10  47 NW10G16   30.07R WCI  19
ABINGDON*      CLOUDY    27  18  71 N10G16    29.97R WCI  17
BRISTOL        CLOUDY    29  16  58 NW9       30.01R WCI  20
KNOXVILLE      CLOUDY    33  21  61 N8        30.07R WCI  26
OAK RIDGE      CLOUDY    34  21  59 VRB3      30.09R
CROSSVILLE     CLOUDY    27  20  75 NW8       30.06R WCI  19
NASHVILLE      CLEAR     29  19  66 N5        30.17R WCI  24
$$

...KEY TO REMARKS...
VSB - VISIBILITY IN MILES
WCI - WIND CHILL INDEX
HX  - HEAT INDEX

$$



USA.gov is the U.S. government's official web portal to all federal, state and local government web resources and services.